| time (UTC) | temp F | wind direction | speed MPH | gust MPH | rain 1hr in | rain 24hr in | rain mn in | humidity % | barometer mb |
| 20260510030520 | 62 | 218 | 0.0 | 0.0 | 0.00 | 0.32 | 0.28 | 74 | 1009.4 |
| 20260510030020 | 61 | 218 | 0.0 | 0.0 | 0.00 | 0.36 | 0.28 | 75 | 1009.4 |
| 20260510025520 | 62 | 218 | 0.0 | 0.0 | 0.00 | 0.36 | 0.28 | 75 | 1009.5 |
| 20260510025019 | 62 | 218 | 0.0 | 0.0 | 0.00 | 0.36 | 0.28 | 75 | 1009.4 |
| 20260510024519 | 62 | 218 | 0.0 | 0.0 | 0.00 | 0.36 | 0.28 | 75 | 1009.4 |
| 20260510024018 | 62 | 218 | 0.0 | 0.0 | 0.00 | 0.36 | 0.28 | 74 | 1009.2 |
| 20260510023518 | 63 | 218 | 0.0 | 0.0 | 0.00 | 0.36 | 0.28 | 71 | 1009.2 |
| 20260510023018 | 63 | 218 | 0.0 | 0.0 | 0.00 | 0.36 | 0.28 | 70 | 1009.1 |
| 20260510022518 | 64 | 218 | 0.0 | 0.0 | 0.00 | 0.36 | 0.28 | 69 | 1009.0 |
| 20260510022017 | 65 | 218 | 0.0 | 0.0 | 0.00 | 0.36 | 0.28 | 67 | 1008.9 |
| 20260510021531 | 65 | 218 | 0.0 | 0.0 | 0.00 | 0.36 | 0.28 | 66 | 1008.7 |
| 20260510021019 | 66 | 218 | 0.0 | 0.0 | 0.00 | 0.36 | 0.28 | 64 | 1008.6 |
| 20260510020517 | 66 | 229 | 0.0 | 0.0 | 0.00 | 0.36 | 0.28 | 64 | 1008.5 |
| 20260510020017 | 66 | 229 | 0.0 | 0.0 | 0.00 | 0.42 | 0.28 | 65 | 1008.5 |
| 20260510015517 | 66 | 229 | 0.0 | 0.0 | 0.00 | 0.42 | 0.28 | 64 | 1008.4 |
| 20260510015021 | 66 | 229 | 0.0 | 0.0 | 0.00 | 0.42 | 0.28 | 64 | 1008.5 |
| 20260510014517 | 66 | 229 | 0.0 | 0.0 | 0.00 | 0.42 | 0.28 | 63 | 1008.5 |
| 20260510014018 | 67 | 229 | 0.0 | 0.0 | 0.00 | 0.42 | 0.28 | 62 | 1008.4 |
| 20260510013516 | 66 | 229 | 0.0 | 0.0 | 0.00 | 0.42 | 0.28 | 63 | 1008.4 |
| 20260510013016 | 67 | 229 | 0.0 | 0.0 | 0.00 | 0.42 | 0.28 | 61 | 1008.3 |
| 20260510012516 | 67 | 229 | 0.0 | 2.0 | 0.00 | 0.42 | 0.28 | 59 | 1008.2 |
| 20260510012016 | 68 | 231 | 0.0 | 2.0 | 0.00 | 0.42 | 0.28 | 59 | 1008.2 |
| 20260510011516 | 68 | 233 | 0.0 | 0.0 | 0.00 | 0.42 | 0.28 | 58 | 1008.1 |
| 20260510011015 | 68 | 248 | 0.0 | 0.0 | 0.00 | 0.42 | 0.28 | 59 | 1008.1 |
| 20260510010515 | 68 | 261 | 0.0 | 0.0 | 0.00 | 0.42 | 0.28 | 59 | 1007.9 |
| 20260510010015 | 68 | 284 | 0.0 | 0.0 | 0.00 | 0.43 | 0.28 | 59 | 1007.9 |
| 20260510005515 | 68 | 284 | 0.0 | 2.0 | 0.00 | 0.43 | 0.28 | 59 | 1007.9 |
| 20260510005015 | 69 | 284 | 0.0 | 2.0 | 0.00 | 0.43 | 0.28 | 57 | 1007.9 |
| 20260510004517 | 69 | 200 | 0.0 | 0.0 | 0.00 | 0.43 | 0.28 | 55 | 1007.8 |
| 20260510004019 | 70 | 202 | 0.0 | 0.0 | 0.00 | 0.43 | 0.28 | 54 | 1007.7 |
| 20260510003516 | 70 | 205 | 0.0 | 0.0 | 0.00 | 0.43 | 0.28 | 54 | 1007.6 |
| 20260510003015 | 70 | 285 | 0.0 | 2.0 | 0.00 | 0.43 | 0.28 | 53 | 1007.6 |
| 20260510002515 | 71 | 285 | 0.0 | 2.0 | 0.00 | 0.43 | 0.28 | 52 | 1007.5 |
| 20260510002014 | 71 | 219 | 0.0 | 2.0 | 0.00 | 0.43 | 0.28 | 52 | 1007.4 |
| 20260510001514 | 71 | 199 | 0.0 | 2.0 | 0.00 | 0.43 | 0.28 | 51 | 1007.3 |
| 20260510001017 | 72 | 222 | 0.0 | 2.0 | 0.00 | 0.43 | 0.28 | 51 | 1007.3 |
| 20260510000514 | 72 | 206 | 0.0 | 2.0 | 0.00 | 0.43 | 0.28 | 47 | 1007.2 |
| 20260510000018 | 73 | 285 | 0.0 | 2.0 | 0.00 | 0.43 | 0.28 | 48 | 1007.2 |
| 20260509235513 | 73 | 318 | 0.0 | 3.0 | 0.00 | 0.43 | 0.28 | 47 | 1007.1 |
| 20260509235013 | 73 | 273 | 0.0 | 3.0 | 0.00 | 0.43 | 0.28 | 47 | 1007.1 |
| 20260509234513 | 73 | 311 | 1.0 | 3.0 | 0.00 | 0.43 | 0.28 | 46 | 1007.0 |
| 20260509234012 | 73 | 183 | 0.0 | 2.0 | 0.00 | 0.43 | 0.28 | 48 | 1006.9 |
| 20260509233512 | 74 | 313 | 0.0 | 2.0 | 0.00 | 0.43 | 0.28 | 47 | 1006.9 |
| 20260509233012 | 74 | 253 | 0.0 | 8.0 | 0.00 | 0.43 | 0.28 | 48 | 1006.9 |
| 20260509232514 | 74 | 282 | 0.0 | 8.0 | 0.00 | 0.43 | 0.28 | 47 | 1006.8 |
| 20260509232012 | 74 | 285 | 0.0 | 4.0 | 0.00 | 0.43 | 0.28 | 44 | 1006.7 |
| 20260509231512 | 74 | 303 | 0.0 | 4.0 | 0.00 | 0.43 | 0.28 | 44 | 1006.6 |
| 20260509231011 | 74 | 336 | 0.0 | 3.0 | 0.00 | 0.43 | 0.28 | 45 | 1006.4 |
| 20260509230511 | 74 | 306 | 0.0 | 3.0 | 0.00 | 0.43 | 0.28 | 46 | 1006.4 |
| 20260509230011 | 74 | 163 | 0.0 | 6.0 | 0.00 | 0.43 | 0.28 | 44 | 1006.3 |
| 20260509225511 | 74 | 276 | 0.0 | 6.0 | 0.00 | 0.43 | 0.28 | 47 | 1006.4 |
| 20260509225012 | 74 | 234 | 0.0 | 4.0 | 0.00 | 0.43 | 0.28 | 45 | 1006.4 |
| 20260509224510 | 74 | 284 | 0.0 | 4.0 | 0.00 | 0.43 | 0.28 | 44 | 1006.4 |
| 20260509224011 | 75 | 201 | 0.0 | 4.0 | 0.00 | 0.43 | 0.28 | 42 | 1006.4 |
| 20260509223511 | 75 | 314 | 0.0 | 3.0 | 0.00 | 0.43 | 0.28 | 44 | 1006.4 |
| 20260509223010 | 75 | 298 | 0.0 | 3.0 | 0.00 | 0.43 | 0.28 | 46 | 1006.3 |
| 20260509222510 | 75 | 260 | 0.0 | 2.0 | 0.00 | 0.43 | 0.28 | 44 | 1006.3 |
| 20260509222010 | 74 | 152 | 0.0 | 6.0 | 0.00 | 0.43 | 0.28 | 45 | 1006.4 |
| 20260509221510 | 75 | 280 | 1.0 | 6.0 | 0.00 | 0.43 | 0.28 | 43 | 1006.3 |
| 20260509221009 | 75 | 205 | 0.0 | 4.0 | 0.00 | 0.43 | 0.28 | 43 | 1006.3 |
| 20260509220508 | 74 | 278 | 0.0 | 6.0 | 0.00 | 0.43 | 0.28 | 47 | 1006.4 |
| 20260509220010 | 74 | 207 | 0.0 | 6.0 | 0.00 | 0.43 | 0.28 | 45 | 1006.4 |
| 20260509215509 | 75 | 338 | 0.0 | 8.0 | 0.00 | 0.43 | 0.28 | 44 | 1006.5 |
| 20260509215009 | 75 | 281 | 0.0 | 8.0 | 0.00 | 0.43 | 0.28 | 45 | 1006.5 |
| 20260509214510 | 75 | 287 | 0.0 | 8.0 | 0.00 | 0.43 | 0.28 | 47 | 1006.5 |
| 20260509214011 | 74 | 189 | 0.0 | 8.0 | 0.00 | 0.43 | 0.28 | 45 | 1006.5 |
| 20260509213508 | 75 | 211 | 0.0 | 7.0 | 0.00 | 0.43 | 0.28 | 45 | 1006.4 |
| 20260509213007 | 75 | 127 | 0.0 | 7.0 | 0.00 | 0.43 | 0.28 | 44 | 1006.4 |
| 20260509212507 | 75 | 162 | 0.0 | 7.0 | 0.00 | 0.43 | 0.28 | 48 | 1006.5 |
| 20260509212007 | 74 | 59 | 1.0 | 7.0 | 0.00 | 0.43 | 0.28 | 47 | 1006.5 |
| 20260509211512 | 75 | 306 | 1.0 | 7.0 | 0.00 | 0.43 | 0.28 | 44 | 1006.5 |
| 20260509211005 | 74 | 213 | 0.0 | 7.0 | 0.00 | 0.43 | 0.28 | 48 | 1006.4 |
| 20260509210505 | 74 | 271 | 0.0 | 7.0 | 0.00 | 0.43 | 0.28 | 47 | 1006.5 |
| 20260509210010 | 74 | 278 | 1.0 | 5.0 | 0.00 | 0.43 | 0.28 | 48 | 1006.4 |
| 20260509205504 | 74 | 258 | 0.0 | 6.0 | 0.00 | 0.43 | 0.28 | 50 | 1006.4 |
| 20260509205003 | 75 | 301 | 0.0 | 3.0 | 0.00 | 0.43 | 0.28 | 49 | 1006.6 |
| 20260509204506 | 74 | 281 | 0.0 | 3.0 | 0.00 | 0.43 | 0.28 | 53 | 1006.5 |
| 20260509204003 | 74 | 269 | 0.0 | 4.0 | 0.00 | 0.43 | 0.28 | 51 | 1006.5 |
| 20260509203503 | 74 | 219 | 0.0 | 5.0 | 0.00 | 0.43 | 0.28 | 49 | 1006.6 |
| 20260509203005 | 74 | 207 | 1.0 | 5.0 | 0.00 | 0.43 | 0.28 | 48 | 1006.8 |
| 20260509202503 | 74 | 227 | 0.0 | 5.0 | 0.00 | 0.43 | 0.28 | 50 | 1006.6 |
| 20260509202006 | 75 | 157 | 0.0 | 7.0 | 0.00 | 0.43 | 0.28 | 46 | 1006.6 |
| 20260509201502 | 75 | 196 | 1.0 | 7.0 | 0.00 | 0.43 | 0.28 | 48 | 1006.6 |
| 20260509201001 | 75 | 225 | 0.0 | 3.0 | 0.00 | 0.43 | 0.28 | 51 | 1006.7 |
| 20260509200501 | 75 | 166 | 0.0 | 3.0 | 0.00 | 0.43 | 0.28 | 51 | 1006.7 |
| 20260509200105 | 74 | 112 | 0.0 | 4.0 | 0.00 | 0.43 | 0.28 | 52 | 1006.8 |
| 20260509195602 | 74 | 232 | 0.0 | 6.0 | 0.00 | 0.43 | 0.28 | 52 | 1007.0 |
| 20260509195059 | 74 | 209 | 0.0 | 9.0 | 0.00 | 0.43 | 0.28 | 53 | 1007.0 |
| 20260509194606 | 74 | 250 | 0.0 | 9.0 | 0.00 | 0.43 | 0.28 | 53 | 1007.1 |
| 20260509194102 | 74 | 194 | 1.0 | 9.0 | 0.00 | 0.43 | 0.28 | 51 | 1007.0 |
| 20260509193558 | 73 | 279 | 0.0 | 5.0 | 0.00 | 0.43 | 0.28 | 53 | 1007.1 |
| 20260509193059 | 74 | 277 | 0.0 | 5.0 | 0.00 | 0.43 | 0.28 | 52 | 1007.1 |
| 20260509192602 | 74 | 319 | 0.0 | 3.0 | 0.00 | 0.43 | 0.28 | 52 | 1007.0 |
| 20260509192057 | 74 | 113 | 0.0 | 3.0 | 0.00 | 0.43 | 0.28 | 50 | 1007.0 |
| 20260509191602 | 73 | 29 | 0.0 | 3.0 | 0.00 | 0.43 | 0.28 | 53 | 1007.2 |
| 20260509191057 | 73 | 159 | 0.0 | 3.0 | 0.00 | 0.43 | 0.28 | 54 | 1007.1 |
| 20260509190555 | 73 | 281 | 0.0 | 4.0 | 0.00 | 0.43 | 0.28 | 55 | 1007.0 |
| 20260509190108 | 73 | 163 | 0.0 | 4.0 | 0.00 | 0.43 | 0.28 | 54 | 1007.2 |
| 20260509185554 | 73 | 277 | 0.0 | 2.0 | 0.00 | 0.43 | 0.28 | 54 | 1007.3 |
| 20260509185054 | 73 | 259 | 0.0 | 2.0 | 0.00 | 0.43 | 0.28 | 60 | 1007.3 |
| 20260509184554 | 73 | 229 | 0.0 | 4.0 | 0.00 | 0.43 | 0.28 | 58 | 1007.3 |
| 20260509184052 | 73 | 149 | 0.0 | 4.0 | 0.00 | 0.43 | 0.28 | 55 | 1007.4 |
| 20260509183552 | 72 | 262 | 0.0 | 3.0 | 0.00 | 0.43 | 0.28 | 56 | 1007.3 |
| 20260509183051 | 72 | 277 | 0.0 | 7.0 | 0.00 | 0.43 | 0.28 | 59 | 1007.3 |
| 20260509182550 | 72 | 297 | 1.0 | 7.0 | 0.00 | 0.43 | 0.28 | 60 | 1007.5 |
| 20260509182050 | 72 | 258 | 0.0 | 2.0 | 0.00 | 0.43 | 0.28 | 60 | 1007.5 |
| 20260509181551 | 72 | 247 | 0.0 | 2.0 | 0.00 | 0.43 | 0.28 | 59 | 1007.6 |
| 20260509181049 | 71 | 300 | 0.0 | 8.0 | 0.00 | 0.43 | 0.28 | 59 | 1007.6 |
| 20260509180548 | 71 | 360 | 0.0 | 8.0 | 0.00 | 0.43 | 0.28 | 61 | 1007.6 |
| 20260509180052 | 71 | 199 | 1.0 | 6.0 | 0.00 | 0.43 | 0.28 | 59 | 1007.7 |
| 20260509175547 | 71 | 88 | 0.0 | 5.0 | 0.00 | 0.43 | 0.28 | 61 | 1007.7 |
| 20260509175049 | 71 | 140 | 0.0 | 5.0 | 0.00 | 0.43 | 0.28 | 61 | 1007.8 |
| 20260509174545 | 70 | 158 | 0.0 | 3.0 | 0.00 | 0.43 | 0.28 | 63 | 1007.6 |
| 20260509174044 | 70 | 296 | 0.0 | 6.0 | 0.00 | 0.43 | 0.28 | 62 | 1007.7 |
| 20260509173544 | 70 | 159 | 0.0 | 6.0 | 0.00 | 0.43 | 0.28 | 66 | 1007.8 |
| 20260509173045 | 70 | 267 | 0.0 | 2.0 | 0.00 | 0.43 | 0.28 | 66 | 1007.8 |
| 20260509172542 | 69 | 263 | 0.0 | 2.0 | 0.00 | 0.43 | 0.28 | 66 | 1007.8 |
| 20260509172041 | 69 | 284 | 0.0 | 6.0 | 0.00 | 0.43 | 0.28 | 65 | 1007.9 |
| 20260509171545 | 69 | 306 | 0.0 | 6.0 | 0.00 | 0.43 | 0.28 | 67 | 1008.0 |
| 20260509171039 | 69 | 132 | 0.0 | 4.0 | 0.00 | 0.43 | 0.28 | 68 | 1008.0 |
| 20260509170538 | 68 | 331 | 0.0 | 4.0 | 0.00 | 0.43 | 0.28 | 66 | 1007.9 |
| 20260509170038 | 68 | 313 | 0.0 | 4.0 | 0.00 | 0.43 | 0.28 | 66 | 1007.9 |
| 20260509165537 | 68 | 271 | 0.0 | 3.0 | 0.00 | 0.43 | 0.28 | 67 | 1008.0 |
| 20260509165038 | 68 | 306 | 0.0 | 3.0 | 0.00 | 0.43 | 0.28 | 68 | 1008.0 |
| 20260509164544 | 68 | 317 | 0.0 | 2.0 | 0.00 | 0.43 | 0.28 | 69 | 1007.9 |
| 20260509164036 | 67 | 13 | 0.0 | 3.0 | 0.00 | 0.43 | 0.28 | 68 | 1008.0 |
| 20260509163537 | 67 | 257 | 0.0 | 3.0 | 0.00 | 0.43 | 0.28 | 66 | 1008.0 |
| 20260509163036 | 67 | 134 | 0.0 | 5.0 | 0.00 | 0.43 | 0.28 | 71 | 1008.0 |
| 20260509162532 | 66 | 193 | 0.0 | 4.0 | 0.00 | 0.43 | 0.28 | 70 | 1008.0 |
| 20260509162033 | 66 | 277 | 0.0 | 2.0 | 0.00 | 0.43 | 0.28 | 70 | 1008.0 |
| 20260509161630 | 66 | 206 | 0.0 | 2.0 | 0.00 | 0.43 | 0.28 | 72 | 1007.8 |
| 20260509161028 | 65 | 199 | 0.0 | 2.0 | 0.00 | 0.43 | 0.28 | 72 | 1007.9 |
| 20260509160528 | 65 | 134 | 0.0 | 8.0 | 0.00 | 0.43 | 0.28 | 72 | 1007.8 |
| 20260509160128 | 65 | 111 | 0.0 | 8.0 | 0.00 | 0.43 | 0.28 | 69 | 1007.8 |
| 20260509155527 | 65 | 331 | 0.0 | 5.0 | 0.00 | 0.43 | 0.28 | 73 | 1007.8 |
| 20260509155024 | 65 | 141 | 1.0 | 5.0 | 0.00 | 0.43 | 0.28 | 72 | 1008.0 |
| 20260509154524 | 64 | 244 | 0.0 | 4.0 | 0.00 | 0.43 | 0.28 | 72 | 1007.8 |
| 20260509154024 | 64 | 145 | 1.0 | 5.0 | 0.00 | 0.43 | 0.28 | 73 | 1007.8 |
| 20260509153523 | 64 | 267 | 0.0 | 4.0 | 0.00 | 0.43 | 0.28 | 75 | 1007.9 |
| 20260509153022 | 64 | 178 | 1.0 | 4.0 | 0.00 | 0.43 | 0.28 | 75 | 1007.9 |
| 20260509152521 | 63 | 275 | 0.0 | 2.0 | 0.00 | 0.43 | 0.28 | 75 | 1007.9 |
| 20260509152021 | 63 | 210 | 0.0 | 4.0 | 0.00 | 0.43 | 0.28 | 76 | 1007.9 |
| 20260509151520 | 63 | 242 | 0.0 | 4.0 | 0.00 | 0.43 | 0.28 | 74 | 1007.9 |
| 20260509151018 | 63 | 96 | 0.0 | 3.0 | 0.00 | 0.43 | 0.28 | 77 | 1007.8 |
| 20260509150518 | 63 | 74 | 0.0 | 4.0 | 0.00 | 0.43 | 0.28 | 77 | 1007.8 |
| 20260509150030 | 63 | 285 | 0.0 | 5.0 | 0.00 | 0.43 | 0.28 | 80 | 1007.7 |
| 20260509145516 | 62 | 173 | 0.0 | 5.0 | 0.00 | 0.43 | 0.28 | 78 | 1007.9 |
| 20260509145015 | 62 | 85 | 0.0 | 3.0 | 0.00 | 0.43 | 0.28 | 80 | 1007.9 |
| 20260509144523 | 62 | 269 | 0.0 | 2.0 | 0.00 | 0.43 | 0.28 | 85 | 1007.8 |
| 20260509144016 | 61 | 288 | 0.0 | 3.0 | 0.00 | 0.43 | 0.28 | 88 | 1007.8 |
| 20260509143512 | 61 | 134 | 0.0 | 3.0 | 0.00 | 0.43 | 0.28 | 87 | 1007.7 |
| 20260509143011 | 60 | 107 | 0.0 | 2.0 | 0.00 | 0.43 | 0.28 | 87 | 1007.9 |
| 20260509142509 | 60 | 276 | 0.0 | 2.0 | 0.00 | 0.43 | 0.28 | 89 | 1007.9 |
| 20260509142008 | 60 | 282 | 0.0 | 2.0 | 0.00 | 0.43 | 0.28 | 90 | 1007.8 |
| 20260509141509 | 59 | 209 | 0.0 | 2.0 | 0.00 | 0.43 | 0.28 | 89 | 1007.8 |
| 20260509141005 | 59 | 90 | 0.0 | 2.0 | 0.00 | 0.43 | 0.28 | 89 | 1007.9 |
| 20260509140503 | 59 | 275 | 0.0 | 2.0 | 0.00 | 0.43 | 0.28 | 90 | 1007.8 |
| 20260509140002 | 58 | 209 | 0.0 | 2.0 | 0.00 | 0.43 | 0.28 | 91 | 1007.7 |
| 20260509135501 | 58 | 284 | 0.0 | 2.0 | 0.00 | 0.43 | 0.28 | 91 | 1007.6 |
| 20260509135100 | 58 | 208 | 0.0 | 2.0 | 0.00 | 0.43 | 0.28 | 92 | 1007.7 |
| 20260509134628 | 57 | 140 | 0.0 | 2.0 | 0.00 | 0.43 | 0.28 | 92 | 1007.8 |
| 20260509134101 | 57 | 176 | 0.0 | 2.0 | 0.00 | 0.43 | 0.28 | 92 | 1007.9 |
| 20260509133558 | 57 | 189 | 0.0 | 2.0 | 0.00 | 0.43 | 0.28 | 92 | 1007.8 |
| 20260509133059 | 57 | 200 | 0.0 | 3.0 | 0.00 | 0.43 | 0.28 | 94 | 1007.9 |
| 20260509132557 | 56 | 169 | 0.0 | 2.0 | 0.00 | 0.43 | 0.28 | 94 | 1007.7 |
| 20260509132056 | 57 | 278 | 0.0 | 2.0 | 0.00 | 0.43 | 0.28 | 94 | 1007.8 |
| 20260509131555 | 57 | 240 | 0.0 | 3.0 | 0.00 | 0.43 | 0.28 | 95 | 1007.6 |
| 20260509131053 | 57 | 166 | 0.0 | 3.0 | 0.00 | 0.43 | 0.28 | 95 | 1007.7 |
| 20260509130554 | 56 | 164 | 0.0 | 2.0 | 0.00 | 0.43 | 0.28 | 95 | 1007.7 |
| 20260509130052 | 56 | 142 | 0.0 | 2.0 | 0.00 | 0.43 | 0.28 | 95 | 1007.6 |
| 20260509125553 | 56 | 149 | 0.0 | 3.0 | 0.00 | 0.43 | 0.28 | 95 | 1007.6 |
| 20260509125051 | 56 | 140 | 0.0 | 2.0 | 0.00 | 0.43 | 0.28 | 96 | 1007.7 |
| 20260509124551 | 56 | 132 | 0.0 | 2.0 | 0.00 | 0.43 | 0.28 | 95 | 1007.6 |
| 20260509124050 | 56 | 232 | 0.0 | 2.0 | 0.00 | 0.43 | 0.28 | 96 | 1007.7 |
| 20260509123550 | 56 | 134 | 0.0 | 0.0 | 0.00 | 0.43 | 0.28 | 96 | 1007.6 |
| 20260509123051 | 55 | 132 | 0.0 | 2.0 | 0.00 | 0.43 | 0.28 | 96 | 1007.6 |
| 20260509122548 | 55 | 132 | 0.0 | 2.0 | 0.00 | 0.43 | 0.28 | 95 | 1007.5 |
| 20260509122047 | 55 | 189 | 0.0 | 2.0 | 0.00 | 0.43 | 0.28 | 96 | 1007.5 |
| 20260509121550 | 55 | 204 | 0.0 | 2.0 | 0.00 | 0.43 | 0.28 | 96 | 1007.4 |
| 20260509121048 | 55 | 292 | 0.0 | 2.0 | 0.00 | 0.43 | 0.28 | 95 | 1007.5 |
| 20260509120545 | 55 | 200 | 0.0 | 0.0 | 0.00 | 0.43 | 0.28 | 95 | 1007.5 |
| 20260509120509 | 55 | 200 | 0.0 | 0.0 | 0.00 | 0.43 | 0.28 | 95 | 1007.4 |
| 20260509120044 | 55 | 188 | 0.0 | 0.0 | 0.00 | 0.43 | 0.28 | 96 | 1007.3 |
| 20260509115544 | 55 | 186 | 0.0 | 2.0 | 0.00 | 0.43 | 0.28 | 96 | 1007.2 |
| 20260509115043 | 55 | 172 | 0.0 | 2.0 | 0.00 | 0.43 | 0.28 | 95 | 1007.1 |
| 20260509114545 | 55 | 188 | 0.0 | 2.0 | 0.00 | 0.43 | 0.28 | 96 | 1007.2 |
| 20260509114043 | 55 | 5 | 0.0 | 2.0 | 0.00 | 0.43 | 0.28 | 96 | 1007.2 |
| 20260509113542 | 55 | 159 | 0.0 | 2.0 | 0.00 | 0.43 | 0.28 | 96 | 1007.1 |
| 20260509113047 | 55 | 181 | 0.0 | 2.0 | 0.00 | 0.43 | 0.28 | 96 | 1007.0 |
| 20260509112542 | 55 | 190 | 0.0 | 1.0 | 0.00 | 0.43 | 0.28 | 96 | 1006.9 |
| 20260509112042 | 55 | 164 | 0.0 | 2.0 | 0.00 | 0.43 | 0.28 | 96 | 1006.8 |
| 20260509111541 | 55 | 223 | 0.0 | 2.0 | 0.00 | 0.43 | 0.28 | 96 | 1006.8 |
| 20260509111041 | 55 | 178 | 0.0 | 2.0 | 0.00 | 0.43 | 0.28 | 96 | 1006.7 |
| 20260509110543 | 55 | 208 | 0.0 | 2.0 | 0.00 | 0.43 | 0.28 | 96 | 1006.7 |
| 20260509110039 | 55 | 153 | 0.0 | 2.0 | 0.00 | 0.43 | 0.28 | 96 | 1006.7 |
| 20260509105539 | 55 | 209 | 0.0 | 2.0 | 0.00 | 0.43 | 0.28 | 96 | 1006.7 |
| 20260509105039 | 55 | 171 | 0.0 | 0.0 | 0.00 | 0.43 | 0.28 | 96 | 1006.7 |
| 20260509104539 | 55 | 164 | 0.0 | 0.0 | 0.00 | 0.43 | 0.28 | 96 | 1006.7 |
| 20260509104038 | 55 | 164 | 0.0 | 0.0 | 0.00 | 0.43 | 0.28 | 96 | 1006.7 |
| 20260509103538 | 54 | 164 | 0.0 | 0.0 | 0.00 | 0.43 | 0.28 | 96 | 1006.6 |
| 20260509103038 | 54 | 164 | 0.0 | 0.0 | 0.00 | 0.43 | 0.28 | 96 | 1006.6 |
| 20260509102538 | 54 | 164 | 0.0 | 0.0 | 0.00 | 0.43 | 0.28 | 96 | 1006.5 |
| 20260509102039 | 54 | 164 | 0.0 | 0.0 | 0.00 | 0.43 | 0.28 | 96 | 1006.5 |
| 20260509101548 | 54 | 164 | 0.0 | 0.0 | 0.01 | 0.43 | 0.28 | 95 | 1006.5 |
| 20260509101037 | 54 | 162 | 0.0 | 2.0 | 0.01 | 0.43 | 0.28 | 95 | 1006.5 |
| 20260509100538 | 54 | 161 | 0.0 | 2.0 | 0.01 | 0.43 | 0.28 | 95 | 1006.5 |
| 20260509100037 | 54 | 128 | 0.0 | 2.0 | 0.01 | 0.43 | 0.28 | 96 | 1006.5 |
| 20260509095537 | 54 | 178 | 0.0 | 0.0 | 0.01 | 0.43 | 0.28 | 95 | 1006.5 |
| 20260509095038 | 55 | 161 | 0.0 | 2.0 | 0.01 | 0.43 | 0.28 | 95 | 1006.5 |
| 20260509094536 | 54 | 162 | 0.0 | 2.0 | 0.02 | 0.43 | 0.28 | 95 | 1006.6 |
| 20260509094035 | 55 | 195 | 0.0 | 2.0 | 0.02 | 0.43 | 0.28 | 95 | 1006.8 |
| 20260509093534 | 55 | 186 | 0.0 | 2.0 | 0.02 | 0.43 | 0.28 | 95 | 1006.8 |
| 20260509093035 | 55 | 98 | 0.0 | 2.0 | 0.03 | 0.43 | 0.28 | 95 | 1007.1 |
| 20260509092533 | 55 | 184 | 0.0 | 1.0 | 0.03 | 0.43 | 0.28 | 95 | 1007.2 |
| 20260509092033 | 55 | 132 | 0.0 | 1.0 | 0.03 | 0.43 | 0.28 | 95 | 1007.2 |
| 20260509091533 | 55 | 173 | 0.0 | 0.0 | 0.03 | 0.42 | 0.27 | 95 | 1007.3 |
| 20260509091036 | 55 | 167 | 0.0 | 0.0 | 0.04 | 0.42 | 0.27 | 95 | 1007.5 |
| 20260509090532 | 55 | 167 | 0.0 | 0.0 | 0.04 | 0.42 | 0.27 | 95 | 1007.5 |
| 20260509090032 | 55 | 167 | 0.0 | 1.0 | 0.05 | 0.42 | 0.27 | 95 | 1007.5 |
| 20260509085531 | 55 | 167 | 0.0 | 1.0 | 0.05 | 0.42 | 0.27 | 95 | 1007.5 |
| 20260509085031 | 55 | 169 | 0.0 | 1.0 | 0.05 | 0.42 | 0.27 | 95 | 1007.8 |
| 20260509084531 | 55 | 157 | 0.0 | 2.0 | 0.04 | 0.41 | 0.26 | 95 | 1007.6 |
| 20260509084030 | 55 | 173 | 0.0 | 2.0 | 0.05 | 0.41 | 0.26 | 95 | 1007.6 |
| 20260509083532 | 55 | 176 | 0.0 | 0.0 | 0.07 | 0.41 | 0.26 | 95 | 1007.4 |
| 20260509083036 | 55 | 176 | 0.0 | 0.0 | 0.09 | 0.40 | 0.25 | 95 | 1007.4 |
| 20260509082534 | 55 | 198 | 0.0 | 0.0 | 0.10 | 0.40 | 0.25 | 95 | 1007.5 |
| 20260509082028 | 55 | 198 | 0.0 | 1.0 | 0.11 | 0.40 | 0.25 | 95 | 1007.6 |
| 20260509081532 | 55 | 198 | 0.0 | 1.0 | 0.11 | 0.39 | 0.24 | 95 | 1007.7 |
| 20260509081028 | 55 | 214 | 0.0 | 0.0 | 0.10 | 0.38 | 0.23 | 95 | 1007.8 |
| 20260509080527 | 55 | 209 | 0.0 | 0.0 | 0.11 | 0.38 | 0.23 | 95 | 1007.7 |
| 20260509080027 | 55 | 211 | 0.0 | 0.0 | 0.11 | 0.37 | 0.22 | 95 | 1007.7 |
| 20260509075527 | 55 | 211 | 0.0 | 0.0 | 0.12 | 0.37 | 0.22 | 95 | 1007.7 |
| 20260509075029 | 55 | 211 | 0.0 | 0.0 | 0.13 | 0.37 | 0.22 | 95 | 1007.7 |
| 20260509074526 | 55 | 211 | 0.0 | 0.0 | 0.13 | 0.36 | 0.21 | 95 | 1007.8 |
| 20260509074025 | 55 | 211 | 0.0 | 0.0 | 0.14 | 0.36 | 0.21 | 95 | 1007.9 |
| 20260509073524 | 55 | 211 | 0.0 | 0.0 | 0.12 | 0.33 | 0.18 | 95 | 1008.2 |
| 20260509073023 | 55 | 211 | 0.0 | 0.0 | 0.10 | 0.31 | 0.16 | 95 | 1008.2 |
| 20260509072524 | 55 | 211 | 0.0 | 1.0 | 0.10 | 0.30 | 0.15 | 95 | 1008.2 |
| 20260509072026 | 55 | 209 | 0.0 | 1.0 | 0.09 | 0.28 | 0.14 | 95 | 1008.2 |
| 20260509071522 | 55 | 217 | 0.0 | 0.0 | 0.08 | 0.28 | 0.13 | 95 | 1008.2 |
| 20260509071025 | 55 | 259 | 0.0 | 0.0 | 0.08 | 0.28 | 0.13 | 95 | 1008.2 |
| 20260509070526 | 55 | 259 | 0.0 | 0.0 | 0.07 | 0.27 | 0.12 | 95 | 1008.2 |
| 20260509070022 | 55 | 259 | 0.0 | 0.0 | 0.07 | 0.26 | 0.11 | 95 | 1008.2 |
| 20260509065521 | 55 | 259 | 0.0 | 1.0 | 0.06 | 0.25 | 0.10 | 95 | 1008.3 |
| 20260509065020 | 55 | 259 | 0.0 | 2.0 | 0.05 | 0.24 | 0.09 | 95 | 1008.4 |
| 20260509064520 | 55 | 313 | 0.0 | 2.0 | 0.04 | 0.23 | 0.08 | 95 | 1008.5 |
| 20260509064021 | 55 | 229 | 0.0 | 2.0 | 0.03 | 0.22 | 0.07 | 95 | 1008.6 |
| 20260509063521 | 55 | 322 | 0.0 | 0.0 | 0.02 | 0.21 | 0.06 | 95 | 1008.6 |
| 20260509063019 | 55 | 322 | 0.0 | 0.0 | 0.02 | 0.21 | 0.06 | 95 | 1008.5 |
| 20260509062519 | 55 | 322 | 0.0 | 0.0 | 0.01 | 0.20 | 0.05 | 95 | 1008.3 |
| 20260509062019 | 55 | 322 | 0.0 | 0.0 | 0.02 | 0.20 | 0.05 | 95 | 1008.2 |
| 20260509061520 | 55 | 322 | 0.0 | 0.0 | 0.02 | 0.20 | 0.05 | 95 | 1008.3 |
| 20260509061018 | 55 | 322 | 0.0 | 0.0 | 0.02 | 0.20 | 0.05 | 95 | 1008.2 |
| 20260509060518 | 55 | 322 | 0.0 | 0.0 | 0.02 | 0.20 | 0.05 | 95 | 1008.3 |
| 20260509060020 | 55 | 322 | 0.0 | 0.0 | 0.02 | 0.19 | 0.04 | 95 | 1008.4 |
| 20260509055516 | 55 | 322 | 0.0 | 0.0 | 0.02 | 0.19 | 0.04 | 95 | 1008.6 |
| 20260509055016 | 55 | 319 | 0.0 | 0.0 | 0.02 | 0.19 | 0.04 | 95 | 1008.6 |
| 20260509054516 | 55 | 319 | 0.0 | 0.0 | 0.02 | 0.19 | 0.04 | 95 | 1008.8 |
| 20260509054015 | 55 | 319 | 0.0 | 0.0 | 0.02 | 0.19 | 0.04 | 95 | 1008.9 |
| 20260509053515 | 55 | 355 | 0.0 | 0.0 | 0.03 | 0.19 | 0.04 | 95 | 1009.0 |
| 20260509053016 | 55 | 355 | 0.0 | 0.0 | 0.03 | 0.19 | 0.04 | 95 | 1008.9 |
| 20260509052516 | 55 | 355 | 0.0 | 0.0 | 0.03 | 0.19 | 0.04 | 95 | 1009.0 |
| 20260509052016 | 55 | 355 | 0.0 | 0.0 | 0.02 | 0.18 | 0.03 | 95 | 1009.0 |
| 20260509051518 | 55 | 338 | 0.0 | 0.0 | 0.02 | 0.18 | 0.03 | 95 | 1009.0 |
| 20260509051014 | 55 | 338 | 0.0 | 0.0 | 0.03 | 0.18 | 0.03 | 95 | 1009.1 |
| 20260509050518 | 55 | 338 | 0.0 | 0.0 | 0.03 | 0.18 | 0.03 | 94 | 1009.0 |
| 20260509050014 | 55 | 336 | 0.0 | 0.0 | 0.02 | 0.17 | 0.02 | 94 | 1009.2 |
| 20260509045513 | 55 | 338 | 0.0 | 0.0 | 0.02 | 0.17 | 0.02 | 94 | 1008.9 |
| 20260509045014 | 55 | 338 | 0.0 | 0.0 | 0.03 | 0.17 | 0.02 | 94 | 1008.9 |
| 20260509044512 | 55 | 338 | 0.0 | 0.0 | 0.03 | 0.17 | 0.02 | 94 | 1008.8 |
| 20260509044011 | 55 | 338 | 0.0 | 0.0 | 0.04 | 0.17 | 0.02 | 94 | 1008.7 |
| 20260509043517 | 55 | 337 | 0.0 | 0.0 | 0.03 | 0.16 | 0.01 | 94 | 1008.9 |
| 20260509043011 | 56 | 344 | 0.0 | 2.0 | 0.03 | 0.16 | 0.01 | 94 | 1008.9 |
| 20260509042511 | 56 | 11 | 0.0 | 0.0 | 0.03 | 0.16 | 0.01 | 94 | 1008.7 |
| 20260509042010 | 55 | 11 | 0.0 | 0.0 | 0.03 | 0.16 | 0.01 | 94 | 1008.7 |
| 20260509041510 | 56 | 11 | 0.0 | 0.0 | 0.03 | 0.16 | 0.01 | 94 | 1008.9 |
| 20260509041009 | 56 | 11 | 0.0 | 2.0 | 0.02 | 0.15 | 0.00 | 94 | 1008.7 |
| 20260509040509 | 56 | 11 | 0.0 | 2.0 | 0.03 | 0.15 | 0.00 | 94 | 1008.7 |
| 20260509040007 | 56 | 11 | 0.0 | 2.0 | 0.04 | 0.15 | 0.15 | 94 | 1008.7 |
| 20260509035513 | 56 | 11 | 0.0 | 2.0 | 0.04 | 0.15 | 0.15 | 94 | 1008.8 |
| 20260509035008 | 56 | 53 | 0.0 | 0.0 | 0.04 | 0.14 | 0.14 | 94 | 1008.8 |
| 20260509034526 | 56 | 45 | 0.0 | 0.0 | 0.05 | 0.14 | 0.14 | 94 | 1008.9 |
| 20260509034007 | 56 | 45 | 0.0 | 0.0 | 0.05 | 0.13 | 0.13 | 94 | 1009.2 |
| 20260509033508 | 56 | 46 | 0.0 | 0.0 | 0.05 | 0.13 | 0.13 | 94 | 1009.1 |
| 20260509033010 | 56 | 46 | 0.0 | 0.0 | 0.06 | 0.13 | 0.13 | 94 | 1009.2 |
| 20260509032507 | 56 | 46 | 0.0 | 0.0 | 0.06 | 0.13 | 0.13 | 94 | 1009.2 |
| 20260509032010 | 56 | 50 | 0.0 | 0.0 | 0.06 | 0.13 | 0.13 | 94 | 1009.0 |
| 20260509031508 | 56 | 50 | 0.0 | 0.0 | 0.06 | 0.13 | 0.13 | 94 | 1009.1 |
| 20260509031006 | 56 | 50 | 0.0 | 0.0 | 0.06 | 0.13 | 0.13 | 94 | 1009.1 |